Ozark, AL

3:16 PM CDT on July 23, 2017 (GMT -0500)
Cairns Army Air Field

Weather History for KOZR - September, 2013

Change the Weather History Date:

Sunday, September 1, 2013

  Actual Average Record
Temperature  
Mean Temperature 80 °F -  
Max Temperature 90 °F 85 °F 96 °F (2011)
Min Temperature 71 °F 67 °F 64 °F (1999)
Cooling Degree Days 15    
Growing Degree Days 30 (Base 50)    
Moisture  
Dew Point 74 °F    
Average Humidity 91    
Maximum Humidity 100    
Minimum Humidity 62    
Precipitation  
Precipitation 0.00 in - - ()
Sea Level Pressure  
Sea Level Pressure 29.92 in    
Wind  
Wind Speed 2 mph (South)    
Max Wind Speed 9 mph    
Max Gust Speed -    
Visibility 6 miles    
Events Fog , Rain , Thunderstorm    
Averages and records for this station are not official NWS values.
T = Trace of Precipitation, MM = Missing Value Source: NWS Daily Summary

Daily Weather History Graph

Daily Weather History Graph

Search for Another Location

Airport or City:

Trip Planner

Search our weather history database for the weather conditions in past years. The results will help you decide how hot, cold, wet, or windy it might be!

Date:

Astronomy

Sep. 01, 2013 Rise Set
Actual Time 6:18 AM CDT 7:05 PM CDT
Civil Twilight 5:54 AM CDT 7:30 PM CDT
Nautical Twilight 5:25 AM CDT 7:59 PM CDT
Astronomical Twilight 4:55 AM CDT 8:29 PM CDT
Moon 2:49 AM CDT (9/1) 4:35 PM CDT (9/1)
Length of Visible Light 13h 36m
Length of Day
12h 47m
Waning Crescent, 13% of the Moon is Illuminated
Sep 1
Waning Crescent
Sep 5
New
Sep 12
First Quarter
Sep 19
Full
Sep 26
Last Quarter

Hourly Weather History & Observations

Time (CDT) Temp. Heat Index Dew Point Humidity Pressure Visibility Wind Dir Wind Speed Gust Speed Precip Events Conditions
12:58 AM 75.2 °F - 74.3 °F 97% 29.91 in 8.0 mi Calm Calm - N/A   Clear
1:58 AM 74.7 °F - 73.6 °F 96% 29.91 in 8.0 mi East 3.5 mph - N/A   Clear
2:58 AM 73.9 °F - 73.4 °F 98% 29.90 in 3.0 mi Calm Calm - N/A   Clear
3:58 AM 73.2 °F - 73.0 °F 99% 29.90 in 5.0 mi East 3.5 mph - N/A   Clear
4:58 AM 72.9 °F - 72.5 °F 99% 29.90 in 2.5 mi Calm Calm - N/A   Clear
5:03 AM 73.4 °F - 73.4 °F 100% 29.90 in 3.0 mi WSW 2.3 mph - N/A   Clear
5:38 AM 71.6 °F - 71.6 °F 100% 29.91 in 1.0 mi WSW 1.2 mph - N/A   Clear
5:43 AM 71.6 °F - 71.6 °F 100% 29.91 in 0.2 mi Calm Calm - N/A Fog Fog
5:48 AM 71.6 °F - 71.6 °F 100% 29.91 in 0.2 mi South 3.5 mph - N/A Fog Fog
5:49 AM 71.6 °F - 71.6 °F 100% 29.91 in 0.2 mi SSE 3.5 mph - N/A Fog Fog
5:54 AM 71.6 °F - 71.6 °F 100% 29.91 in 0.2 mi Calm Calm - N/A Fog Fog
5:58 AM 71.6 °F - 71.6 °F 100% 29.91 in 0.8 mi Calm Calm - N/A   Mist
6:03 AM 71.6 °F - 71.6 °F 100% 29.92 in 4.0 mi SE 2.3 mph - N/A   Mostly Cloudy
6:08 AM 71.6 °F - 71.6 °F 100% 29.91 in 4.0 mi South 3.5 mph - N/A   Mostly Cloudy
6:13 AM 73.4 °F - 73.4 °F 100% 29.92 in 2.5 mi South 2.3 mph - N/A   Overcast
6:18 AM 73.4 °F - 73.4 °F 100% 29.92 in 1.0 mi South 2.3 mph - N/A   Mist
6:23 AM 73.4 °F - 73.4 °F 100% 29.92 in 0.5 mi Calm Calm - N/A Fog Fog
6:28 AM 73.4 °F - 73.4 °F 100% 29.92 in 0.2 mi SW 1.2 mph - N/A Fog Fog
6:38 AM 73.4 °F - 73.4 °F 100% 29.92 in 0.2 mi SSE 3.5 mph - N/A Fog Fog
6:58 AM 73.4 °F - 73.4 °F 100% 29.93 in 0.2 mi South 2.3 mph - N/A Fog Fog
7:58 AM 74.3 °F - 74.3 °F 100% 29.94 in 0.2 mi Calm Calm - N/A Fog Fog
8:03 AM 75.2 °F - 75.2 °F 100% 29.94 in 0.2 mi North 1.2 mph - N/A Fog Fog
8:13 AM 75.2 °F - 75.2 °F 100% 29.94 in 0.5 mi Calm Calm - N/A Fog Fog
8:26 AM 75.2 °F - 75.2 °F 100% 29.95 in 1.0 mi East 2.3 mph - N/A Rain Light Rain
8:31 AM 75.2 °F - 75.2 °F 100% 29.95 in 1.2 mi Calm Calm - N/A Rain Light Rain
8:35 AM 75.2 °F - 75.2 °F 100% 29.95 in 1.5 mi Variable 2.3 mph - N/A   Mostly Cloudy
8:45 AM 75.2 °F - 75.2 °F 100% 29.95 in 1.2 mi Calm Calm - N/A   Mostly Cloudy
8:50 AM 75.2 °F - 75.2 °F 100% 29.95 in 1.0 mi Calm Calm - N/A   Mist
8:55 AM 75.2 °F - 75.2 °F 100% 29.95 in 1.5 mi Calm Calm - N/A   Overcast
8:58 AM 75.7 °F - 75.7 °F 100% 29.95 in 1.8 mi Calm Calm - 0.00 in   Overcast
9:03 AM 75.2 °F - 75.2 °F 100% 29.95 in 4.0 mi Calm Calm - N/A   Overcast
9:13 AM 77.0 °F - 77.0 °F 100% 29.95 in 9.0 mi SSE 3.5 mph - N/A   Overcast
9:18 AM 77.0 °F - 77.0 °F 100% 29.95 in 9.0 mi SE 4.6 mph - N/A   Mostly Cloudy
9:33 AM 78.8 °F - 77.0 °F 94% 29.95 in 10.0 mi Variable 1.2 mph - N/A   Overcast
9:53 AM 80.6 °F 88.1 °F 78.8 °F 94% 29.95 in 10.0 mi SE 3.5 mph - N/A   Mostly Cloudy
9:58 AM 80.2 °F 87.5 °F 79.3 °F 97% 29.95 in 10.0 mi Variable 1.2 mph - N/A   Mostly Cloudy
10:03 AM 80.6 °F 88.1 °F 78.8 °F 94% 29.95 in 10.0 mi Variable 2.3 mph - N/A   Scattered Clouds
10:58 AM 84.7 °F 94.8 °F 76.8 °F 77% 29.96 in 10.0 mi Variable 3.5 mph - N/A   Clear
11:58 AM 88.0 °F 98.0 °F 75.6 °F 66% 29.95 in 10.0 mi SW 3.5 mph - N/A   Clear
12:58 PM 89.4 °F 99.4 °F 75.0 °F 62% 29.93 in 10.0 mi Variable 4.6 mph - N/A   Partly Cloudy
1:54 PM 89.6 °F 99.8 °F 75.2 °F 62% 29.91 in 10.0 mi Variable 1.2 mph - N/A Thunderstorm Thunderstorm
1:58 PM 88.9 °F 98.6 °F 74.8 °F 63% 29.91 in 10.0 mi NNW 1.2 mph - N/A Thunderstorm Thunderstorm
2:09 PM 89.6 °F 99.8 °F 75.2 °F 62% 29.91 in 10.0 mi Variable 2.3 mph - N/A   Scattered Clouds
2:58 PM 82.9 °F 88.0 °F 72.0 °F 69% 29.89 in 10.0 mi NW 2.3 mph - N/A   Clear
3:58 PM 89.2 °F 99.5 °F 75.0 °F 63% 29.89 in 10.0 mi ENE 4.6 mph - N/A   Partly Cloudy
4:58 PM 86.0 °F 94.2 °F 74.3 °F 68% 29.89 in 10.0 mi ENE 9.2 mph - N/A   Partly Cloudy
5:54 PM 82.4 °F 88.2 °F 73.4 °F 74% 29.89 in 10.0 mi East 1.2 mph - N/A Thunderstorm Thunderstorm
5:58 PM 81.9 °F 87.5 °F 73.6 °F 76% 29.89 in 10.0 mi SW 4.6 mph - N/A Thunderstorm Thunderstorm
6:09 PM 80.6 °F 85.4 °F 73.4 °F 79% 29.90 in 10.0 mi SSE 4.6 mph - N/A   Clear
6:17 PM 80.6 °F 85.4 °F 73.4 °F 79% 29.90 in 10.0 mi South 1.2 mph - N/A Thunderstorm Thunderstorm
6:45 PM 80.6 °F 85.4 °F 73.4 °F 79% 29.90 in 10.0 mi WSW 9.2 mph - N/A   Scattered Clouds
6:58 PM 78.6 °F - 70.9 °F 77% 29.90 in 10.0 mi SW 5.8 mph - N/A   Partly Cloudy
7:58 PM 75.6 °F - 71.4 °F 87% 29.91 in 10.0 mi SSW 3.5 mph - N/A   Clear
8:58 PM 73.8 °F - 71.2 °F 92% 29.92 in 10.0 mi SW 2.3 mph - N/A   Clear
9:58 PM 73.4 °F - 71.6 °F 94% 29.93 in 10.0 mi West 2.3 mph - N/A   Clear
10:58 PM 73.4 °F - 71.6 °F 94% 29.95 in 10.0 mi SW 2.3 mph - N/A   Clear
11:58 PM 72.3 °F - 70.9 °F 95% 29.94 in 10.0 mi SW 2.3 mph - N/A   Clear